Zurück zum Katalog

STARLINK-1246

AktivKommunikationVLEO
NORAD 45235·PAYLOAD·🇺🇸 United States

Gestartet Feb 17, 2020 von Cape Canaveral Space Force Station

Loading…

Nächste Überflüge (nächste 24 Stunden)

TLE

AktuellSource: CelesTrak SupGP

Epoche: Sep 14, 2026, 21:56 UTC

1 45235C 20012BK  26257.91437500  .00067425  00000+0  14886-2 0  2574
2 45235  53.1511 232.8553 0003650 100.9371  78.7008 15.43251590    16

Verfolge STARLINK-1246 in Echtzeit mit AllMySat

Download on the App Store